Regional Weather Roundup
Issued by NWS Goodland, KS

Home | Current Version | Previous Version | Graphics & Text | Print | Product List | Glossary On
Versions: 1 2 3 4 5 6 7 8 9 10 11 12 13 14 15 16 17 18 19 20 21 22 23 24 25 26 27 28 29 30 31 32 33 34 35 36 37 38 39 40 41 42 43 44 45 46 47 48 49 50
000
ASUS43 KGLD 032108
RWRGLD

GOODLAND FORECAST AREA HOURLY WEATHER ROUNDUP
NATIONAL WEATHER SERVICE GOODLAND KS
300 PM MDT THU SEP 03 2015

...OFFICIAL OBSERVATIONS...

CITY           SKY/WX    TMP DP  RH WIND       PRES   REMARKS
GOODLAND KS    PTSUNNY   96  47  18 SE8G18    29.82F
HILL CITY KS   MOSUNNY  100  57  23 S17G24    29.76F
IMPERIAL NEB   PTSUNNY   96  49  20 CALM      29.80F
MCCOOK NEB     MOSUNNY  100  54  21 SE12G21   29.75F
AKRON CO       PTSUNNY   90  42  18 NW10G20   29.92F
BURLINGTON CO  PTSUNNY   91  48  22 SE7       29.87F
LIMON CO       MOSUNNY   83  47  28 N8G21     29.96F
$$

...UNOFFICIAL OBSERVATIONS...

CITY           SKY/WX    TMP DP  RH WIND       PRES   REMARKS
COLBY KS       SUNNY     97  59  28 SE21G26   29.81F
GOVE KS          N/A     97  32  10 MISG        N/A
LENORA KS        N/A     97  32  10 MISG        N/A
NORTON KS      SUNNY     97  48  19 SE16G22   29.75
SHARON SPRINGS   N/A     94  53  24 S14G21      N/A
TRENTON NEB      N/A     99  32   9 SW8         N/A
KIT CARSON CO    N/A     95  49  20 MISG        N/A
YUMA CO          N/A     94  45  18 CALM        N/A
$$


USA.gov is the U.S. government's official web portal to all federal, state and local government web resources and services.